UNISAT-6

Last updated on Sun Jun 21 2026 00:03:20 GMT+0000 (Coordinated Universal Time)

1 40012U 14033C 26171.36053183 .00002275 00000+0 24761-3 0 9992 2 40012 97.7886 324.0163 0046103 59.1479 301.4261 14.88258832646633
UTC large
Height (km)
Speed (km/s)
/
Latitude / Longitude
Inclination (degrees)
Orbital Period (minutes)
Azimuth
Elevation
Range (km)
Doppler Factor

Next 0 passes for location: London (51.5072 / 0.1276)

No passes found over London.
UNISAT-6